Weather History for KMFI - January, 2012

Change the Weather History Date:

Saturday, January 28, 2012

  Actual Average (WUND) Record (WUND)
Temperature  
Mean Temperature 20 °F -  
Max Temperature 26 °F - - (-1)
Min Temperature 10 °F - - (-1)
Degree Days  
Heating Degree Days 45    
Moisture  
Dew Point 13 °F    
Average Humidity 72    
Maximum Humidity 81    
Minimum Humidity 59    
Precipitation  
Precipitation 0.00 in - - ()
Sea Level Pressure  
Sea Level Pressure 29.88 in    
Wind  
Wind Speed 15 mph (West)    
Max Wind Speed 20 mph    
Max Gust Speed 29 mph    
Visibility 10 miles    
Events Snow    
Averages and records for this station are not official NWS values.
T = Trace of Precipitation, MM = Missing Value Source: NWS Daily Summary

Daily Weather History Graph

Daily Weather History Graph

Search for Another Location

Airport or City:

Trip Planner

Search our weather history database for the weather conditions in past years. The results will help you decide how hot, cold, wet, or windy it might be!

Date:

Astronomy

Jan. 28, 2012 Rise Set
Actual Time 7:24 AM CST 5:03 PM CST
Civil Twilight 6:53 AM CST 5:34 PM CST
Nautical Twilight 6:17 AM CST 6:10 PM CST
Astronomical Twilight 5:43 AM CST 6:44 PM CST
Moon 9:30 AM CST (1/28) 11:09 PM CST (1/28)
Length of Visible Light 10h 41m
Length of Day
9h 38m
Waxing Crescent, 28% of the Moon is Illuminated
Jan 28
Waxing Crescent
Jan 30
First Quarter
Feb 7
Full
Feb 14
Last Quarter
Feb 21
New

Hourly Weather History & Observations

Time (CST) Temp. Windchill Dew Point Humidity Pressure Visibility Wind Dir Wind Speed Gust Speed Precip Events Conditions
12:09 AM 26.6 °F 13.4 °F 21.2 °F 80% 29.75 in 6.0 mi NW 18.4 mph 28.8 mph N/A   Haze
12:54 AM 25.0 °F 11.7 °F 19.9 °F 81% 29.80 in 10.0 mi NW 17.3 mph - N/A   Clear
1:40 AM 24.8 °F 10.7 °F 19.4 °F 80% 29.76 in 10.0 mi NW 19.6 mph 25.3 mph N/A   Mostly Cloudy
1:50 AM 23.0 °F 10.6 °F 17.6 °F 80% 29.77 in 10.0 mi WNW 13.8 mph 26.5 mph N/A   Scattered Clouds
1:54 AM 23.0 °F 10.6 °F 18.0 °F 81% 29.82 in 10.0 mi WNW 13.8 mph - N/A   Scattered Clouds
2:54 AM 21.0 °F 8.1 °F 15.1 °F 78% 29.83 in 10.0 mi WNW 13.8 mph 19.6 mph N/A   Clear
3:54 AM 19.0 °F 7.5 °F 12.9 °F 77% 29.83 in 10.0 mi WNW 10.4 mph - N/A   Clear
4:54 AM 18.0 °F 5.4 °F 12.0 °F 78% 29.84 in 10.0 mi West 11.5 mph - N/A   Clear
5:54 AM 17.1 °F 5.0 °F 12.0 °F 81% 29.85 in 10.0 mi West 10.4 mph - N/A   Clear
6:38 AM 17.6 °F 5.0 °F 12.2 °F 79% 29.80 in 10.0 mi West 11.5 mph - N/A   Mostly Cloudy
6:54 AM 18.0 °F 5.4 °F 12.0 °F 78% 29.87 in 10.0 mi West 11.5 mph - N/A   Overcast
7:54 AM 19.0 °F 5.0 °F 12.0 °F 74% 29.88 in 10.0 mi WNW 15.0 mph 23.0 mph N/A   Overcast
8:54 AM 19.9 °F 5.7 °F 12.9 °F 74% 29.89 in 9.0 mi WNW 16.1 mph 25.3 mph N/A   Overcast
9:29 AM 19.4 °F 5.5 °F 12.2 °F 74% 29.84 in 6.0 mi West 15.0 mph 24.2 mph 0.00 in Snow Light Snow
9:43 AM 19.4 °F 5.0 °F 12.2 °F 74% 29.85 in 5.0 mi West 16.1 mph 24.2 mph 0.00 in Snow Light Snow
10:44 AM 21.2 °F 7.8 °F 14.0 °F 74% 29.86 in 10.0 mi West 15.0 mph 23.0 mph N/A   Overcast
10:54 AM 23.0 °F 10.6 °F 14.0 °F 68% 29.91 in 10.0 mi West 13.8 mph 25.3 mph N/A   Overcast
11:54 AM 24.1 °F 11.0 °F 14.0 °F 65% 29.91 in 10.0 mi West 16.1 mph - N/A   Overcast
12:54 PM 25.0 °F 11.7 °F 14.0 °F 63% 29.91 in 10.0 mi West 17.3 mph 26.5 mph N/A   Partly Cloudy
1:37 PM 24.8 °F 11.1 °F 12.2 °F 59% 29.85 in 10.0 mi West 18.4 mph 25.3 mph N/A   Mostly Cloudy
1:47 PM 24.8 °F 11.1 °F 12.2 °F 59% 29.86 in 10.0 mi West 18.4 mph 26.5 mph N/A   Mostly Cloudy
1:54 PM 24.1 °F 10.6 °F 12.9 °F 62% 29.92 in 10.0 mi West 17.3 mph 27.6 mph N/A   Overcast
2:32 PM 24.8 °F 11.1 °F 12.2 °F 59% 29.87 in 10.0 mi West 18.4 mph 26.5 mph N/A   Mostly Cloudy
2:54 PM 24.1 °F 11.0 °F 12.9 °F 62% 29.94 in 10.0 mi West 16.1 mph 28.8 mph N/A   Overcast
3:54 PM 24.1 °F 11.5 °F 12.0 °F 60% 29.95 in 10.0 mi West 15.0 mph 24.2 mph N/A   Overcast
4:54 PM 23.0 °F 11.1 °F 12.0 °F 63% 29.97 in 10.0 mi West 12.7 mph - N/A   Overcast
5:54 PM 24.1 °F 11.0 °F 12.0 °F 60% 29.98 in 10.0 mi West 16.1 mph 24.2 mph N/A   Overcast
6:54 PM 23.0 °F 10.1 °F 12.0 °F 63% 29.99 in 10.0 mi West 15.0 mph - N/A   Overcast
7:54 PM 21.0 °F 12.4 °F 12.0 °F 68% 29.99 in 10.0 mi West 6.9 mph - N/A   Mostly Cloudy
8:54 PM 19.0 °F 11.1 °F 10.9 °F 71% 29.98 in 10.0 mi West 5.8 mph - N/A   Mostly Cloudy
9:54 PM 16.0 °F 10.4 °F 9.0 °F 74% 29.97 in 10.0 mi West 3.5 mph - N/A   Clear
10:54 PM 14.0 °F 8.2 °F 9.0 °F 80% 29.97 in 10.0 mi SW 3.5 mph - N/A   Clear
11:54 PM 10.9 °F - 6.1 °F 81% 29.97 in 10.0 mi Calm Calm - N/A   Clear